sat.trackr.live / text

‹ back to catalog

STARLINK-35452

NORAD 66104 · 2025-236U

PAYLOAD ACTIVE UNKNOWN

§ Identity

Operator
Country
US
Launch date
2025-10-19
Launch site
AFWTR
Launch vehicle
Mass (kg)
RCS (m²)

Purposes: comms

External: N2YO · Heavens-Above · Gunter

§ Orbital elements

Epoch: 2026-09-20T06:13:56.026272Z

Period
93.85 min
Inclination
53.1572°
Eccentricity
0.0001318
Mean motion
15.34398738 rev/d
Perigee alt
461.8 km
Apogee alt
463.6 km
Semi-major
6,840.8 km
B*
5.2737e-4
RAAN
276.6023°
Arg perigee
98.4551°
Mean anomaly
261.6601°
Rev number
5,278

§ Raw data

STARLINK-354521 66104U 25236U   26263.25967623  .00017483  00000+0  52737-3 0  99932 66104  53.1572 276.6023 0001318  98.4551 261.6601 15.34398738 52788

JSON: /api/v1/satellites/66104 · /tle

For live sub-satellite position, see the globe view (requires WebGL).

§ Visibility from observer

Set your observer location to see the next 7 days of passes ≥ 10°. The values pass through the URL so the page stays shareable.

No JS? Fill the form by hand. The geolocation button needs JavaScript.